Location: Harwich
(41.7160°N, 69.9939°W)
Time: 09:39:48
(UTC+01:00)

X-37B - Pass Details

Date: 09 December 2022
Orbit: 277 x 277 km, 45.0° (Epoch: 01 November)

Event Time Altitude Azimuth Distance (km) Brightness Sun altitude
Rises 22:58:10 0° 241° (WSW) 1,906 6.4 -9.0°
Reaches altitude 10° 23:00:05 10° 237° (WSW) 1,096 4.4 -9.3°
Maximum altitude 23:02:30 60° 156° (SSE) 323 0.1 -9.7°
Enters shadow 23:04:10 17° 79° (E) 798 1.5 -10.0°
